Total_Precipitation_Accumulation
1.11 1.11 1.07 1.00 0.99 0.99 1.01 1.09 1.19 1.06 0.80 0.61 0.57 0.57 0.61 0.64 0.72 0.70 0.64 0.77 0.78 0.74 0.76 0.77 0.75 0.72 0.68 0.69 0.74 0.84 0.91 0.93 0.93 0.94 0.92 0.90 0.90 0.97
1.03 1.05 1.03 0.96 0.95 0.97 1.01 1.05 1.14 1.21 1.02 0.69 0.57 0.57 0.61 0.62 0.70 0.63 0.58 0.69 0.68 0.66 0.66 0.64 0.63 0.61 0.59 0.58 0.59 0.66 0.72 0.77 0.81 0.86 0.94 0.99 1.00 1.05
0.93 0.94 0.95 0.95 0.97 0.97 0.99 1.03 1.08 1.15 1.14 0.86 0.70 0.68 0.71 0.70 0.69 0.62 0.56 0.54 0.53 0.60 0.57 0.54 0.53 0.52 0.51 0.51 0.51 0.52 0.54 0.60 0.68 0.76 0.85 0.93 0.97 0.98
0.80 0.85 0.85 0.88 0.90 0.93 0.98 1.02 1.05 1.07 1.11 0.97 0.76 0.67 0.65 0.63 0.60 0.57 0.52 0.47 0.43 0.52 0.50 0.47 0.45 0.42 0.41 0.42 0.45 0.48 0.49 0.51 0.55 0.61 0.66 0.74 0.81 0.86
0.71 0.73 0.76 0.82 0.87 0.87 0.90 0.92 0.92 0.92 0.94 0.92 0.76 0.61 0.55 0.52 0.52 0.47 0.43 0.40 0.37 0.40 0.42 0.41 0.41 0.41 0.41 0.41 0.43 0.44 0.42 0.40 0.41 0.44 0.49 0.56 0.61 0.67
0.68 0.70 0.72 0.74 0.76 0.79 0.83 0.84 0.84 0.84 0.83 0.85 0.79 0.68 0.60 0.55 0.56 0.52 0.46 0.41 0.38 0.35 0.40 0.40 0.41 0.40 0.37 0.35 0.34 0.36 0.37 0.37 0.40 0.44 0.49 0.53 0.55 0.59
0.68 0.69 0.72 0.78 0.79 0.77 0.76 0.75 0.76 0.80 0.84 0.89 0.85 0.71 0.58 0.53 0.51 0.46 0.46 0.44 0.44 0.41 0.41 0.37 0.33 0.30 0.28 0.28 0.30 0.32 0.36 0.40 0.43 0.46 0.51 0.55 0.57 0.60
0.67 0.64 0.64 0.67 0.66 0.66 0.65 0.65 0.70 0.78 0.89 0.92 0.80 0.63 0.48 0.42 0.42 0.47 0.52 0.56 0.50 0.34 0.35 0.35 0.32 0.32 0.27 0.25 0.31 0.34 0.35 0.37 0.39 0.41 0.43 0.48 0.52 0.56
0.63 0.58 0.54 0.52 0.53 0.46 0.49 0.53 0.56 0.63 0.66 0.60 0.53 0.46 0.41 0.39 0.48 0.57 0.56 0.54 0.42 0.30 0.37 0.41 0.36 0.33 0.28 0.29 0.35 0.33 0.33 0.35 0.38 0.42 0.44 0.45 0.48 0.52
0.48 0.44 0.40 0.36 0.35 0.36 0.39 0.46 0.45 0.43 0.42 0.39 0.36 0.34 0.34 0.37 0.46 0.57 0.58 0.57 0.46 0.35 0.36 0.39 0.32 0.28 0.25 0.26 0.33 0.34 0.34 0.38 0.42 0.47 0.48 0.49 0.49 0.52
0.37 0.33 0.33 0.31 0.36 0.42 0.43 0.44 0.35 0.30 0.34 0.38 0.40 0.39 0.39 0.39 0.40 0.52 0.62 0.68 0.59 0.39 0.31 0.33 0.28 0.27 0.27 0.26 0.29 0.35 0.35 0.37 0.39 0.40 0.43 0.45 0.48 0.53
0.27 0.28 0.32 0.32 0.39 0.46 0.42 0.38 0.32 0.28 0.29 0.33 0.37 0.38 0.37 0.39 0.44 0.44 0.58 0.80 0.69 0.48 0.26 0.31 0.33 0.38 0.51 0.31 0.26 0.29 0.32 0.34 0.37 0.39 0.42 0.46 0.50 0.54
0.23 0.24 0.26 0.36 0.42 0.45 0.39 0.31 0.33 0.36 0.33 0.32 0.33 0.35 0.37 0.39 0.41 0.39 0.45 0.77 0.95 0.67 0.30 0.52 0.66 0.49 0.63 0.44 0.28 0.26 0.28 0.30 0.34 0.38 0.42 0.47 0.55 0.67
0.22 0.21 0.25 0.37 0.39 0.37 0.34 0.34 0.38 0.36 0.30 0.33 0.36 0.34 0.33 0.32 0.31 0.33 0.35 0.41 0.55 0.63 0.45 0.68 1.00 0.73 0.81 0.65 0.36 0.28 0.28 0.29 0.37 0.46 0.51 0.59 0.63 0.68
0.23 0.25 0.29 0.31 0.30 0.30 0.33 0.37 0.36 0.32 0.31 0.34 0.34 0.32 0.30 0.30 0.32 0.36 0.38 0.38 0.37 0.36 0.38 0.46 0.71 0.77 0.91 0.87 0.55 0.34 0.34 0.33 0.37 0.51 0.59 0.62 0.63 0.67
0.26 0.26 0.26 0.25 0.26 0.27 0.29 0.32 0.33 0.33 0.37 0.38 0.35 0.32 0.32 0.35 0.37 0.39 0.42 0.43 0.46 0.40 0.36 0.35 0.43 0.69 0.84 0.65 0.65 0.55 0.45 0.52 0.47 0.57 0.66 0.68 0.70 0.74
0.34 0.30 0.27 0.26 0.25 0.25 0.26 0.28 0.30 0.33 0.37 0.37 0.40 0.41 0.39 0.39 0.37 0.37 0.43 0.48 0.52 0.42 0.36 0.35 0.38 0.44 0.54 0.59 0.63 0.52 0.49 0.55 0.65 0.76 0.86 0.89 0.81 0.85
0.42 0.33 0.27 0.25 0.26 0.25 0.26 0.29 0.31 0.35 0.38 0.44 0.46 0.48 0.50 0.49 0.44 0.38 0.40 0.48 0.50 0.42 0.39 0.37 0.42 0.52 0.50 0.46 0.50 0.59 0.62 0.69 0.75 0.82 0.96 1.11 0.96 0.83
0.40 0.31 0.25 0.23 0.23 0.26 0.30 0.33 0.35 0.36 0.42 0.50 0.55 0.58 0.60 0.56 0.52 0.48 0.44 0.46 0.45 0.41 0.39 0.42 0.53 0.78 0.82 0.52 0.35 0.52 0.81 0.89 0.85 0.89 0.97 1.14 1.26 1.06
0.30 0.26 0.23 0.24 0.26 0.31 0.35 0.38 0.40 0.42 0.46 0.50 0.54 0.59 0.65 0.67 0.60 0.54 0.51 0.53 0.54 0.49 0.42 0.39 0.47 0.78 1.13 0.96 0.69 0.54 0.65 0.94 1.15 1.22 1.05 0.91 0.96 0.96
0.22 0.22 0.25 0.29 0.34 0.37 0.40 0.43 0.47 0.49 0.49 0.53 0.55 0.58 0.66 0.73 0.66 0.56 0.56 0.54 0.58 0.58 0.52 0.41 0.41 0.56 0.82 0.97 0.82 0.56 0.59 0.69 0.98 1.37 1.33 1.13 0.94 0.86
0.24 0.26 0.30 0.36 0.43 0.47 0.49 0.49 0.50 0.48 0.49 0.53 0.54 0.57 0.62 0.71 0.72 0.64 0.62 0.63 0.58 0.57 0.54 0.45 0.43 0.51 0.67 0.86 0.73 0.53 0.53 0.52 0.55 0.65 0.98 1.42 1.84 1.91
0.29 0.33 0.36 0.41 0.47 0.51 0.53 0.52 0.50 0.47 0.47 0.55 0.59 0.59 0.63 0.67 0.65 0.68 0.68 0.69 0.69 0.62 0.56 0.52 0.46 0.47 0.51 0.58 0.64 0.56 0.50 0.47 0.45 0.50 0.71 0.88 1.13 1.37